Regional Weather Roundup
Issued by NWS

Home | Current Version | Previous Version | Graphics & Text | Print | Product List | Glossary On
Versions: 1 2 3 4 5 6 7 8 9 10 11 12 13 14 15 16 17 18 19 20 21 22 23 24 25 26 27 28 29 30 31 32 33 34 35 36 37 38 39 40 41 42 43 44 45 46 47 48 49 50
000
ASUS43 KOAX 301210
RWRNE

WEATHER ROUNDUP FOR NEBRASKA
NATIONAL WEATHER SERVICE OMAHA NE
600 AM CST FRI JAN 30 2015

NOTES: SATELLITE DATA IS BEING USED TO AUGMENT CLOUD COVER ABOVE
       12000 FEET.
       "FAIR" INDICATES FEW OR NO CLOUDS BELOW 12,000 FEET WITH NO
       SIGNIFICANT WEATHER AND/OR OBSTRUCTIONS TO VISIBILITY.

  * THESE STATIONS DO NOT REPORT WEATHER SUCH AS RAIN...SNOW OR FOG.

NEZ001>004-019>022-054>056-301300-
NEBRASKA PANHANDLE

CITY           SKY/WX    TMP DP  RH WIND       PRES   REMARKS
SCOTTSBLUFF    CLOUDY    29  22  75 E8        30.24F WCI  21
6HR MIN TEMP:  28; 6HR MAX TEMP:  29;

ALLIANCE       CLOUDY    25  21  85 SE5       30.25F WCI  19
6HR MIN TEMP:  23; 6HR MAX TEMP:  26;

CHADRON        MOCLDY    34  18  52 S7        30.22F WCI  28
6HR MIN TEMP:  27; 6HR MAX TEMP:  37;

KIMBALL        CLOUDY    29  24  80 S6        30.21F WCI  23
SIDNEY         CLOUDY    29  21  72 S6        30.25F WCI  23
6HR MIN TEMP:  27; 6HR MAX TEMP:  30;

$$

NEZ057>060-069>072-079>082-301300-
SOUTHWEST NEBRASKA

CITY           SKY/WX    TMP DP  RH WIND       PRES   REMARKS
NORTH PLATTE   MOCLDY    19  15  84 E5        30.37F WCI  12
6HR MIN TEMP:  16; 6HR MAX TEMP:  20;

IMPERIAL       CLOUDY    29  21  72 S8        30.33F WCI  21
6HR MIN TEMP:  23; 6HR MAX TEMP:  31;

LEXINGTON      MOCLDY    24  20  84 SE6       30.41F WCI  17
MCCOOK         CLOUDY    21  16  81 CALM      30.39F
6HR MIN TEMP:  20; 6HR MAX TEMP:  23;

OGALLALA       CLOUDY    27  22  81 CALM      30.32F
$$

NEZ005>010-023>029-035>040-094-301300-
NORTH CENTRAL NEBRASKA

CITY           SKY/WX    TMP DP  RH WIND       PRES   REMARKS
VALENTINE      PTCLDY    20  16  84 SE3       30.32F
6HR MIN TEMP:  18; 6HR MAX TEMP:  22;

AINSWORTH      CLEAR     23  19  85 S10       30.34F WCI  12
BROKEN BOW     PTCLDY    22  18  85 SE5       30.39F WCI  16
6HR MIN TEMP:  15; 6HR MAX TEMP:  22;

O`NEILL        PTCLDY    20  19  94 S9        30.42F WCI   9
ORD            CLEAR     20  16  84 S6        30.43F WCI  12
6HR MIN TEMP:  13; 6HR MAX TEMP:  23;

THEDFORD       MOCLDY    29  21  72 CALM      30.33F
$$

NEZ041-046>049-061>064-073>077-083>087-301300-
SOUTH CENTRAL NEBRASKA

CITY           SKY/WX    TMP DP  RH WIND       PRES   REMARKS
GRAND ISLAND   CLEAR     20  18  92 S7        30.48S WCI  11
6HR MIN TEMP:  18; 6HR MAX TEMP:  24;

AURORA         PTCLDY    21  20  96 S5        30.48S WCI  14
HASTINGS       PTCLDY    20  17  88 S6        30.46F WCI  12
6HR MIN TEMP:  19; 6HR MAX TEMP:  26;

HEBRON         PTCLDY    14  11  87 CALM      30.51F
HOLDREGE       PTCLDY    24  20  84 S9        30.43S WCI  14
KEARNEY *      PTCLDY    19  16  86 S8        30.44F WCI   9
YORK           PTCLDY    18  16  93 S3        30.50R
$$

NEZ011>018-030>034-042>045-301300-
NORTHEAST NEBRASKA

CITY           SKY/WX    TMP DP  RH WIND       PRES   REMARKS
NORFOLK        CLEAR     15  13  91 SW3       30.47F
6HR MIN TEMP:  14; 6HR MAX TEMP:  22;

ALBION         PTCLDY    16  13  89 CALM      30.47S
BLAIR          PTCLDY    22  19  87 CALM      30.50S
COLUMBUS *     CLEAR     12   3  67 CALM      30.50S
FREMONT        PTCLDY    18  16  93 CALM      30.51F
TEKAMAH        FAIR      16  13  88 CALM      30.52F
6HR MIN TEMP:  16; 6HR MAX TEMP:  23;

WAYNE          CLEAR     12   9  89 SW3       30.48F
$$

NEZ050>053-065>068-078-088>093-301300-
SOUTHEAST NEBRASKA

CITY           SKY/WX    TMP DP  RH WIND       PRES   REMARKS
LINCOLN        CLEAR     16  13  88 CALM      30.53F
6HR MIN TEMP:  12; 6HR MAX TEMP:  20;

OMAHA EPPLEY   PTCLDY    19  17  92 CALM      30.53F
6HR MIN TEMP:  18; 6HR MAX TEMP:  26;

BEATRICE       PTCLDY    14  11  90 CALM      30.51S
FALLS CITY     MOCLDY    16  12  84 CALM      30.52F
6HR MIN TEMP:  13; 6HR MAX TEMP:  23;

NEBRASKA CITY  PTCLDY    20  19  96 CALM      30.51F FOG
PLATTSMOUTH    PTCLDY    20  18  91 CALM      30.52R FOG
$$

NEZ044-045-051>053-067-301300-
OMAHA AREA

CITY           SKY/WX    TMP DP  RH WIND       PRES   REMARKS
OMAHA EPPLEY   PTCLDY    19  17  92 CALM      30.53F
6HR MIN TEMP:  18; 6HR MAX TEMP:  26;

BLAIR          PTCLDY    22  19  87 CALM      30.50S
FREMONT        PTCLDY    18  16  93 CALM      30.51F
MILLARD        PTCLDY    18  16  90 CALM      30.53S
OFFUTT AFB     PTCLDY    15  13  90 SW2       30.53S
PLATTSMOUTH    PTCLDY    20  18  91 CALM      30.52R FOG
WAHOO          FAIR      14  11  87 CALM      30.51S
$$


USA.gov is the U.S. government's official web portal to all federal, state and local government web resources and services.